date,time,SUV Intensity [MED/Hr],UV Index,Daily total [MED],Since Last [MED]
16/05/2023,00:01:49,0.000,0.0,0.0,0.0
16/05/2023,00:02:49,0.000,0.0,0.0,0.0
16/05/2023,00:03:49,0.000,0.0,0.0,0.0
16/05/2023,00:04:50,0.000,0.0,0.0,0.0
16/05/2023,00:05:50,0.000,0.0,0.0,0.0
16/05/2023,00:06:49,0.000,0.0,0.0,0.0
16/05/2023,00:07:49,0.001,0.0,0.0,0.0
16/05/2023,00:08:50,0.000,0.0,0.0,0.0
16/05/2023,00:09:49,0.000,0.0,0.0,0.0
16/05/2023,00:10:49,0.000,0.0,0.0,0.0
16/05/2023,00:11:49,0.001,0.0,0.0,0.0
16/05/2023,00:12:49,0.000,0.0,0.0,0.0
16/05/2023,00:13:49,0.001,0.0,0.0,0.0
16/05/2023,00:14:49,0.000,0.0,0.0,0.0
16/05/2023,00:15:50,-0.001,0.0,0.0,0.0
16/05/2023,00:16:50,0.001,0.0,0.0,0.0
16/05/2023,00:17:49,0.001,0.0,0.0,0.0
16/05/2023,00:18:49,0.000,0.0,0.0,0.0
16/05/2023,00:19:49,0.001,0.0,0.0,0.0
16/05/2023,00:20:49,0.000,0.0,0.0,0.0
16/05/2023,00:21:49,0.000,0.0,0.0,0.0
16/05/2023,00:22:49,-0.000,0.0,0.0,0.0
16/05/2023,00:23:49,0.000,0.0,0.0,0.0
16/05/2023,00:24:50,0.000,0.0,0.0,0.0
16/05/2023,00:25:49,0.000,0.0,0.0,0.0
16/05/2023,00:26:50,0.000,0.0,0.0,0.0
16/05/2023,00:27:50,0.001,0.0,0.0,0.0
16/05/2023,00:28:49,0.000,0.0,0.0,0.0
16/05/2023,00:29:49,0.000,0.0,0.0,0.0
16/05/2023,00:30:49,0.000,0.0,0.0,0.0
16/05/2023,00:31:49,0.001,0.0,0.0,0.0
16/05/2023,00:32:49,0.000,0.0,0.0,0.0
16/05/2023,00:33:49,0.001,0.0,0.0,0.0
16/05/2023,00:34:49,0.000,0.0,0.0,0.0
16/05/2023,00:35:50,0.001,0.0,0.0,0.0
16/05/2023,00:36:49,0.001,0.0,0.0,0.0
16/05/2023,00:37:49,0.000,0.0,0.0,0.0
16/05/2023,00:38:49,0.000,0.0,0.0,0.0
16/05/2023,00:39:49,0.000,0.0,0.0,0.0
16/05/2023,00:40:49,0.000,0.0,0.0,0.0
16/05/2023,00:41:50,0.000,0.0,0.0,0.0
16/05/2023,00:42:50,0.001,0.0,0.0,0.0
16/05/2023,00:43:49,-0.001,0.0,0.0,0.0
16/05/2023,00:44:49,0.000,0.0,0.0,0.0
16/05/2023,00:45:49,0.000,0.0,0.0,0.0
16/05/2023,00:46:49,-0.001,0.0,0.0,0.0
16/05/2023,00:47:49,0.000,0.0,0.0,0.0
16/05/2023,00:48:50,-0.001,0.0,0.0,0.0
16/05/2023,00:49:50,0.001,0.0,0.0,0.0
16/05/2023,00:50:49,0.001,0.0,0.0,0.0
16/05/2023,00:51:49,0.001,0.0,0.0,0.0
16/05/2023,00:52:49,0.000,0.0,0.0,0.0
16/05/2023,00:53:49,0.000,0.0,0.0,0.0
16/05/2023,00:54:49,0.000,0.0,0.0,0.0
16/05/2023,00:55:49,0.000,0.0,0.0,0.0
16/05/2023,00:56:49,0.000,0.0,0.0,0.0
16/05/2023,00:57:50,0.000,0.0,0.0,0.0
16/05/2023,00:58:49,0.001,0.0,0.0,0.0
16/05/2023,00:59:49,0.000,0.0,0.0,0.0
16/05/2023,01:00:49,0.000,0.0,0.0,0.0
16/05/2023,01:01:49,-0.000,0.0,0.0,0.0
16/05/2023,01:02:49,0.000,0.0,0.0,0.0
16/05/2023,01:03:49,0.001,0.0,0.0,0.0
16/05/2023,01:04:49,0.001,0.0,0.0,0.0
16/05/2023,01:05:49,0.002,0.0,0.0,0.0
16/05/2023,01:06:49,0.001,0.0,0.0,0.0
16/05/2023,01:07:50,0.001,0.0,0.0,0.0
16/05/2023,01:08:49,0.000,0.0,0.0,0.0
16/05/2023,01:09:49,-0.001,0.0,0.0,0.0
16/05/2023,01:10:49,-0.001,0.0,0.0,0.0
16/05/2023,01:11:49,0.000,0.0,0.0,0.0
16/05/2023,01:12:49,0.000,0.0,0.0,0.0
16/05/2023,01:13:50,0.001,0.0,0.0,0.0
16/05/2023,01:14:49,0.000,0.0,0.0,0.0
16/05/2023,01:15:49,0.000,0.0,0.0,0.0
16/05/2023,01:16:49,0.000,0.0,0.0,0.0
16/05/2023,01:17:49,0.000,0.0,0.0,0.0
16/05/2023,01:18:49,0.000,0.0,0.0,0.0
16/05/2023,01:19:49,0.001,0.0,0.0,0.0
16/05/2023,01:20:50,-0.000,0.0,0.0,0.0
16/05/2023,01:21:49,0.000,0.0,0.0,0.0
16/05/2023,01:22:49,-0.001,0.0,0.0,0.0
16/05/2023,01:23:50,0.000,0.0,0.0,0.0
16/05/2023,01:24:49,0.000,0.0,0.0,0.0
16/05/2023,01:25:49,-0.000,0.0,0.0,0.0
16/05/2023,01:26:49,0.000,0.0,0.0,0.0
16/05/2023,01:27:50,0.001,0.0,0.0,0.0
16/05/2023,01:28:50,0.000,0.0,0.0,0.0
16/05/2023,01:29:50,0.000,0.0,0.0,0.0
16/05/2023,01:30:49,0.000,0.0,0.0,0.0
16/05/2023,01:31:49,0.000,0.0,0.0,0.0
16/05/2023,01:32:49,0.001,0.0,0.0,0.0
16/05/2023,01:33:49,0.000,0.0,0.0,0.0
16/05/2023,01:34:49,0.001,0.0,0.0,0.0
16/05/2023,01:35:50,0.000,0.0,0.0,0.0
16/05/2023,01:36:50,0.000,0.0,0.0,0.0
16/05/2023,01:37:49,0.000,0.0,0.0,0.0
16/05/2023,01:38:51,-0.000,0.0,0.0,0.0
16/05/2023,01:39:50,0.000,0.0,0.0,0.0
16/05/2023,01:40:50,0.000,0.0,0.0,0.0
16/05/2023,01:41:49,0.001,0.0,0.0,0.0
16/05/2023,01:42:49,0.000,0.0,0.0,0.0
16/05/2023,01:43:50,0.000,0.0,0.0,0.0
16/05/2023,01:44:49,0.000,0.0,0.0,0.0
16/05/2023,01:45:50,0.000,0.0,0.0,0.0
16/05/2023,01:46:49,0.001,0.0,0.0,0.0
16/05/2023,01:47:50,0.001,0.0,0.0,0.0
16/05/2023,01:48:50,0.000,0.0,0.0,0.0
16/05/2023,01:49:49,0.000,0.0,0.0,0.0
16/05/2023,01:50:50,0.000,0.0,0.0,0.0
16/05/2023,01:51:49,0.000,0.0,0.0,0.0
16/05/2023,01:52:49,0.000,0.0,0.0,0.0
16/05/2023,01:53:49,0.001,0.0,0.0,0.0
16/05/2023,01:54:50,0.001,0.0,0.0,0.0
16/05/2023,01:55:50,0.001,0.0,0.0,0.0
16/05/2023,01:56:50,0.000,0.0,0.0,0.0
16/05/2023,01:57:50,0.001,0.0,0.0,0.0
16/05/2023,01:58:49,0.001,0.0,0.0,0.0
16/05/2023,01:59:49,0.000,0.0,0.0,0.0
16/05/2023,02:00:49,0.000,0.0,0.0,0.0
16/05/2023,02:01:49,0.001,0.0,0.0,0.0
16/05/2023,02:02:50,0.001,0.0,0.0,0.0
16/05/2023,02:03:50,0.001,0.0,0.0,0.0
16/05/2023,02:04:49,0.001,0.0,0.0,0.0
16/05/2023,02:05:49,0.001,0.0,0.0,0.0
16/05/2023,02:06:49,0.001,0.0,0.0,0.0
16/05/2023,02:07:49,0.001,0.0,0.0,0.0
16/05/2023,02:08:49,0.001,0.0,0.0,0.0
16/05/2023,02:09:49,0.001,0.0,0.0,0.0
16/05/2023,02:10:49,0.001,0.0,0.0,0.0
16/05/2023,02:11:50,0.001,0.0,0.0,0.0
16/05/2023,02:12:51,-0.000,0.0,0.0,0.0
16/05/2023,02:13:51,0.001,0.0,0.0,0.0
16/05/2023,02:14:50,0.001,0.0,0.0,0.0
16/05/2023,02:15:50,0.001,0.0,0.0,0.0
16/05/2023,02:16:49,0.001,0.0,0.0,0.0
16/05/2023,02:17:50,0.001,0.0,0.0,0.0
16/05/2023,02:18:49,0.001,0.0,0.0,0.0
16/05/2023,02:19:49,0.001,0.0,0.0,0.0
16/05/2023,02:20:49,0.001,0.0,0.0,0.0
16/05/2023,02:21:49,0.001,0.0,0.0,0.0
16/05/2023,02:22:49,0.001,0.0,0.0,0.0
16/05/2023,02:23:49,0.001,0.0,0.0,0.0
16/05/2023,02:24:50,0.001,0.0,0.0,0.0
16/05/2023,02:25:50,0.001,0.0,0.0,0.0
16/05/2023,02:26:49,0.001,0.0,0.0,0.0
16/05/2023,02:27:49,0.001,0.0,0.0,0.0
16/05/2023,02:28:49,0.000,0.0,0.0,0.0
16/05/2023,02:29:49,0.001,0.0,0.0,0.0
16/05/2023,02:30:49,0.001,0.0,0.0,0.0
16/05/2023,02:31:49,0.001,0.0,0.0,0.0
16/05/2023,02:32:49,0.001,0.0,0.0,0.0
16/05/2023,02:33:49,0.001,0.0,0.0,0.0
16/05/2023,02:34:50,0.001,0.0,0.0,0.0
16/05/2023,02:35:50,-0.000,0.0,0.0,0.0
16/05/2023,02:36:50,0.001,0.0,0.0,0.0
16/05/2023,02:37:49,0.001,0.0,0.0,0.0
16/05/2023,02:38:49,0.001,0.0,0.0,0.0
16/05/2023,02:39:49,-0.000,0.0,0.0,0.0
16/05/2023,02:40:49,0.001,0.0,0.0,0.0
16/05/2023,02:41:49,0.001,0.0,0.0,0.0
16/05/2023,02:42:50,0.001,0.0,0.0,0.0
16/05/2023,02:43:50,0.001,0.0,0.0,0.0
16/05/2023,02:44:50,0.001,0.0,0.0,0.0
16/05/2023,02:45:50,0.001,0.0,0.0,0.0
16/05/2023,02:46:50,0.001,0.0,0.0,0.0
16/05/2023,02:47:49,0.001,0.0,0.0,0.0
16/05/2023,02:48:49,0.000,0.0,0.0,0.0
16/05/2023,02:49:50,0.001,0.0,0.0,0.0
16/05/2023,02:50:49,-0.000,0.0,0.0,0.0
16/05/2023,02:51:50,0.001,0.0,0.0,0.0
16/05/2023,02:52:49,0.000,0.0,0.0,0.0
16/05/2023,02:53:49,0.001,0.0,0.0,0.0
16/05/2023,02:54:49,0.001,0.0,0.0,0.0
16/05/2023,02:55:50,0.001,0.0,0.0,0.0
16/05/2023,02:56:50,0.001,0.0,0.0,0.0
16/05/2023,02:57:50,0.001,0.0,0.0,0.0
16/05/2023,02:58:49,0.001,0.0,0.0,0.0
16/05/2023,02:59:49,0.001,0.0,0.0,0.0
16/05/2023,03:00:49,0.001,0.0,0.0,0.0
16/05/2023,03:01:49,0.001,0.0,0.0,0.0
16/05/2023,03:02:49,0.001,0.0,0.0,0.0
16/05/2023,03:03:50,0.001,0.0,0.0,0.0
16/05/2023,03:04:50,0.001,0.0,0.0,0.0
16/05/2023,03:05:49,0.001,0.0,0.0,0.0
16/05/2023,03:06:50,0.001,0.0,0.0,0.0
16/05/2023,03:07:50,0.001,0.0,0.0,0.0
16/05/2023,03:08:50,0.001,0.0,0.0,0.0
16/05/2023,03:09:49,0.001,0.0,0.0,0.0
16/05/2023,03:10:49,0.001,0.0,0.0,0.0
16/05/2023,03:11:50,0.001,0.0,0.0,0.0
16/05/2023,03:12:50,0.001,0.0,0.0,0.0
16/05/2023,03:13:50,0.001,0.0,0.0,0.0
16/05/2023,03:14:50,0.001,0.0,0.0,0.0
16/05/2023,03:15:50,0.001,0.0,0.0,0.0
16/05/2023,03:16:49,0.001,0.0,0.0,0.0
16/05/2023,03:17:49,0.001,0.0,0.0,0.0
16/05/2023,03:18:49,0.001,0.0,0.0,0.0
16/05/2023,03:19:50,0.001,0.0,0.0,0.0
16/05/2023,03:20:49,0.001,0.0,0.0,0.0
16/05/2023,03:21:49,0.001,0.0,0.0,0.0
16/05/2023,03:22:49,0.001,0.0,0.0,0.0
16/05/2023,03:23:49,0.001,0.0,0.0,0.0
16/05/2023,03:24:49,0.001,0.0,0.0,0.0
16/05/2023,03:25:50,0.001,0.0,0.0,0.0
16/05/2023,03:26:50,0.001,0.0,0.0,0.0
16/05/2023,03:27:50,0.001,0.0,0.0,0.0
16/05/2023,03:28:50,0.001,0.0,0.0,0.0
16/05/2023,03:29:50,0.001,0.0,0.0,0.0
16/05/2023,03:30:50,0.001,0.0,0.0,0.0
16/05/2023,03:31:50,0.001,0.0,0.0,0.0
16/05/2023,03:32:49,0.001,0.0,0.0,0.0
16/05/2023,03:33:49,0.001,0.0,0.0,0.0
16/05/2023,03:34:49,-0.000,0.0,0.0,0.0
16/05/2023,03:35:50,0.001,0.0,0.0,0.0
16/05/2023,03:36:50,0.001,0.0,0.0,0.0
16/05/2023,03:37:49,0.001,0.0,0.0,0.0
16/05/2023,03:38:49,0.001,0.0,0.0,0.0
16/05/2023,03:39:49,0.001,0.0,0.0,0.0
16/05/2023,03:40:50,0.001,0.0,0.0,0.0
16/05/2023,03:41:51,0.001,0.0,0.0,0.0
16/05/2023,03:42:50,0.001,0.0,0.0,0.0
16/05/2023,03:43:50,0.001,0.0,0.0,0.0
16/05/2023,03:44:49,0.001,0.0,0.0,0.0
16/05/2023,03:45:49,0.001,0.0,0.0,0.0
16/05/2023,03:46:50,0.001,0.0,0.0,0.0
16/05/2023,03:47:49,0.001,0.0,0.0,0.0
16/05/2023,03:48:49,0.001,0.0,0.0,0.0
16/05/2023,03:49:49,0.002,0.0,0.0,0.0
16/05/2023,03:50:50,0.001,0.0,0.0,0.0
16/05/2023,03:51:50,0.001,0.0,0.0,0.0
16/05/2023,03:52:50,0.001,0.0,0.0,0.0
16/05/2023,03:53:49,0.001,0.0,0.0,0.0
16/05/2023,03:54:49,0.001,0.0,0.0,0.0
16/05/2023,03:55:49,0.001,0.0,0.0,0.0
16/05/2023,03:56:49,0.001,0.0,0.0,0.0
16/05/2023,03:57:49,0.001,0.0,0.0,0.0
16/05/2023,03:58:49,0.002,0.0,0.0,0.0
16/05/2023,03:59:50,0.002,0.0,0.0,0.0
16/05/2023,04:00:50,0.001,0.0,0.0,0.0
16/05/2023,04:01:50,0.002,0.0,0.0,0.0
16/05/2023,04:02:49,0.002,0.0,0.0,0.0
16/05/2023,04:03:49,0.002,0.0,0.0,0.0
16/05/2023,04:04:50,0.002,0.0,0.0,0.0
16/05/2023,04:05:50,0.002,0.0,0.0,0.0
16/05/2023,04:06:50,0.002,0.0,0.0,0.0
16/05/2023,04:07:50,0.002,0.0,0.0,0.0
16/05/2023,04:08:49,0.002,0.0,0.0,0.0
16/05/2023,04:09:49,0.002,0.0,0.0,0.0
16/05/2023,04:10:50,0.003,0.0,0.0,0.0
16/05/2023,04:11:50,0.003,0.0,0.0,0.0
16/05/2023,04:12:50,0.003,0.0,0.0,0.0
16/05/2023,04:13:49,0.004,0.0,0.0,0.0
16/05/2023,04:14:50,0.003,0.0,0.0,0.0
16/05/2023,04:15:50,0.003,0.0,0.0,0.0
16/05/2023,04:16:50,0.004,0.0,0.0,0.0
16/05/2023,04:17:49,0.004,0.0,0.0,0.0
16/05/2023,04:18:50,0.005,0.0,0.0,0.0
16/05/2023,04:19:50,0.004,0.0,0.0,0.0
16/05/2023,04:20:50,0.004,0.0,0.0,0.0
16/05/2023,04:21:50,0.004,0.0,0.0,0.0
16/05/2023,04:22:49,0.004,0.0,0.0,0.0
16/05/2023,04:23:49,0.005,0.0,0.0,0.0
16/05/2023,04:24:50,0.005,0.0,0.0,0.0
16/05/2023,04:25:50,0.005,0.0,0.0,0.0
16/05/2023,04:26:49,0.005,0.0,0.0,0.0
16/05/2023,04:27:49,0.006,0.0,0.0,0.0
16/05/2023,04:28:49,0.006,0.0,0.0,0.0
16/05/2023,04:29:49,0.006,0.0,0.0,0.0
16/05/2023,04:30:49,0.006,0.0,0.0,0.0
16/05/2023,04:31:50,0.007,0.0,0.0,0.0
16/05/2023,04:32:50,0.007,0.0,0.0,0.0
16/05/2023,04:33:50,0.007,0.0,0.001,0.001
16/05/2023,04:34:50,0.008,0.0,0.001,0.0
16/05/2023,04:35:49,0.008,0.0,0.001,0.0
16/05/2023,04:36:49,0.008,0.0,0.001,0.0
16/05/2023,04:37:49,0.009,0.0,0.001,0.0
16/05/2023,04:38:49,0.009,0.0,0.001,0.0
16/05/2023,04:39:49,0.010,0.0,0.001,0.0
16/05/2023,04:40:49,0.010,0.0,0.002,0.001
16/05/2023,04:41:50,0.010,0.0,0.002,0.0
16/05/2023,04:42:50,0.010,0.0,0.002,0.0
16/05/2023,04:43:50,0.012,0.0,0.002,0.0
16/05/2023,04:44:49,0.011,0.0,0.002,0.0
16/05/2023,04:45:49,0.011,0.0,0.002,0.0
16/05/2023,04:46:49,0.013,0.0,0.003,0.001
16/05/2023,04:47:50,0.013,0.0,0.003,0.0
16/05/2023,04:48:51,0.013,0.0,0.003,0.0
16/05/2023,04:49:49,0.013,0.0,0.003,0.0
16/05/2023,04:50:50,0.013,0.0,0.004,0.001
16/05/2023,04:51:49,0.014,0.0,0.004,0.0
16/05/2023,04:52:50,0.015,0.0,0.004,0.0
16/05/2023,04:53:50,0.016,0.0,0.004,0.0
16/05/2023,04:54:50,0.015,0.0,0.005,0.001
16/05/2023,04:55:50,0.016,0.0,0.005,0.0
16/05/2023,04:56:49,0.017,0.0,0.005,0.0
16/05/2023,04:57:50,0.018,0.0,0.005,0.0
16/05/2023,04:58:50,0.018,0.0,0.006,0.001
16/05/2023,04:59:50,0.020,0.0,0.006,0.0
16/05/2023,05:00:50,0.019,0.0,0.006,0.0
16/05/2023,05:01:49,0.021,0.0,0.007,0.001
16/05/2023,05:02:49,0.021,0.0,0.007,0.0
16/05/2023,05:03:50,0.022,0.0,0.007,0.0
16/05/2023,05:04:50,0.023,0.0,0.008,0.001
16/05/2023,05:05:49,0.023,0.0,0.008,0.0
16/05/2023,05:06:50,0.024,0.0,0.009,0.001
16/05/2023,05:07:50,0.025,0.0,0.009,0.0
16/05/2023,05:08:50,0.025,0.0,0.009,0.0
16/05/2023,05:09:50,0.026,0.0,0.01,0.001
16/05/2023,05:10:49,0.027,0.0,0.01,0.0
16/05/2023,05:11:50,0.027,0.0,0.011,0.001
16/05/2023,05:12:50,0.028,0.0,0.011,0.0
16/05/2023,05:13:50,0.029,0.0,0.012,0.001
16/05/2023,05:14:49,0.030,0.0,0.012,0.0
16/05/2023,05:15:50,0.030,0.0,0.013,0.001
16/05/2023,05:16:49,0.031,0.0,0.013,0.0
16/05/2023,05:18:13,0.033,0.0,0.014,0.001
16/05/2023,05:19:50,0.035,0.0,0.015,0.001
16/05/2023,05:20:50,0.035,0.0,0.015,0.0
16/05/2023,05:21:49,0.037,0.0,0.016,0.001
16/05/2023,05:22:50,0.038,0.0,0.017,0.001
16/05/2023,05:23:50,0.039,0.0,0.017,0.0
16/05/2023,05:24:50,0.040,0.0,0.018,0.001
16/05/2023,05:25:50,0.040,0.0,0.019,0.001
16/05/2023,05:26:50,0.042,0.0,0.019,0.0
16/05/2023,05:27:50,0.043,0.0,0.02,0.001
16/05/2023,05:28:49,0.045,0.0,0.021,0.001
16/05/2023,05:29:50,0.045,0.0,0.021,0.0
16/05/2023,05:30:50,0.046,0.0,0.022,0.001
16/05/2023,05:31:50,0.047,0.0,0.023,0.001
16/05/2023,05:32:50,0.049,0.0,0.024,0.001
16/05/2023,05:33:49,0.049,0.0,0.025,0.001
16/05/2023,05:34:49,0.051,0.0,0.025,0.0
16/05/2023,05:35:50,0.052,0.0,0.026,0.001
16/05/2023,05:36:50,0.054,0.0,0.027,0.001
16/05/2023,05:37:50,0.055,0.0,0.028,0.001
16/05/2023,05:38:50,0.055,0.0,0.029,0.001
16/05/2023,05:39:49,0.057,0.0,0.03,0.001
16/05/2023,05:40:50,0.059,0.0,0.031,0.001
16/05/2023,05:41:50,0.061,0.0,0.032,0.001
16/05/2023,05:42:49,0.062,0.0,0.033,0.001
16/05/2023,05:43:50,0.063,0.0,0.034,0.001
16/05/2023,05:44:50,0.065,0.0,0.035,0.001
16/05/2023,05:45:50,0.066,0.0,0.036,0.001
16/05/2023,05:46:49,0.068,0.0,0.037,0.001
16/05/2023,05:47:50,0.069,0.0,0.038,0.001
16/05/2023,05:48:50,0.071,0.0,0.04,0.002
16/05/2023,05:49:50,0.073,0.0,0.041,0.001
16/05/2023,05:50:49,0.074,0.0,0.042,0.001
16/05/2023,05:51:50,0.076,0.0,0.043,0.001
16/05/2023,05:52:50,0.077,0.0,0.045,0.002
16/05/2023,05:53:50,0.079,0.0,0.046,0.001
16/05/2023,05:54:50,0.081,0.0,0.047,0.001
16/05/2023,05:55:50,0.083,0.0,0.049,0.002
16/05/2023,05:56:50,0.084,0.0,0.05,0.001
16/05/2023,05:57:50,0.087,0.0,0.051,0.001
16/05/2023,05:58:50,0.090,0.0,0.053,0.002
16/05/2023,05:59:50,0.093,0.0,0.054,0.001
16/05/2023,06:00:50,0.096,0.0,0.056,0.002
16/05/2023,06:01:50,0.098,0.0,0.058,0.002
16/05/2023,06:02:50,0.099,0.0,0.059,0.001
16/05/2023,06:03:50,0.102,0.0,0.061,0.002
16/05/2023,06:04:50,0.103,0.0,0.063,0.002
16/05/2023,06:05:50,0.106,0.0,0.064,0.001
16/05/2023,06:06:49,0.109,0.0,0.066,0.002
16/05/2023,06:07:50,0.111,0.0,0.068,0.002
16/05/2023,06:08:50,0.114,0.0,0.07,0.002
16/05/2023,06:09:50,0.116,0.0,0.072,0.002
16/05/2023,06:10:50,0.118,0.0,0.074,0.002
16/05/2023,06:11:50,0.120,0.0,0.076,0.002
16/05/2023,06:12:49,0.122,0.0,0.078,0.002
16/05/2023,06:13:50,0.125,0.0,0.08,0.002
16/05/2023,06:14:49,0.127,0.0,0.082,0.002
16/05/2023,06:15:50,0.130,0.0,0.084,0.002
16/05/2023,06:16:49,0.132,0.0,0.086,0.002
16/05/2023,06:17:49,0.136,0.0,0.088,0.002
16/05/2023,06:18:50,0.138,0.0,0.091,0.003
16/05/2023,06:19:50,0.140,0.0,0.093,0.002
16/05/2023,06:20:49,0.142,0.0,0.095,0.002
16/05/2023,06:21:50,0.147,0.0,0.098,0.003
16/05/2023,06:22:50,0.149,0.0,0.1,0.002
16/05/2023,06:23:49,0.153,0.0,0.103,0.003
16/05/2023,06:24:50,0.155,0.0,0.105,0.002
16/05/2023,06:25:50,0.158,0.0,0.108,0.003
16/05/2023,06:26:50,0.161,0.0,0.111,0.003
16/05/2023,06:27:50,0.164,0.0,0.113,0.002
16/05/2023,06:28:50,0.168,0.0,0.116,0.003
16/05/2023,06:29:50,0.170,0.0,0.119,0.003
16/05/2023,06:30:50,0.173,0.0,0.122,0.003
16/05/2023,06:31:50,0.178,0.0,0.125,0.003
16/05/2023,06:32:50,0.180,0.0,0.128,0.003
16/05/2023,06:33:49,0.185,0.0,0.131,0.003
16/05/2023,06:34:50,0.188,0.0,0.134,0.003
16/05/2023,06:35:50,0.191,0.0,0.137,0.003
16/05/2023,06:36:50,0.194,0.0,0.14,0.003
16/05/2023,06:37:50,0.198,0.0,0.143,0.003
16/05/2023,06:38:49,0.202,0.0,0.147,0.004
16/05/2023,06:39:50,0.205,0.0,0.15,0.003
16/05/2023,06:40:50,0.208,0.0,0.154,0.004
16/05/2023,06:41:50,0.212,0.0,0.157,0.003
16/05/2023,06:42:49,0.216,0.0,0.161,0.004
16/05/2023,06:43:49,0.219,1.0,0.164,0.003
16/05/2023,06:44:50,0.221,1.0,0.168,0.004
16/05/2023,06:45:50,0.224,1.0,0.172,0.004
16/05/2023,06:46:50,0.227,1.0,0.175,0.003
16/05/2023,06:47:50,0.229,1.0,0.179,0.004
16/05/2023,06:48:49,0.231,1.0,0.183,0.004
16/05/2023,06:49:50,0.233,1.0,0.187,0.004
16/05/2023,06:50:50,0.238,1.0,0.191,0.004
16/05/2023,06:51:50,0.244,1.0,0.195,0.004
16/05/2023,06:52:50,0.251,1.0,0.199,0.004
16/05/2023,06:53:50,0.253,1.0,0.203,0.004
16/05/2023,06:54:50,0.257,1.0,0.207,0.004
16/05/2023,06:55:50,0.261,1.0,0.212,0.005
16/05/2023,06:56:50,0.266,1.0,0.216,0.004
16/05/2023,06:57:49,0.270,1.0,0.221,0.005
16/05/2023,06:58:50,0.273,1.0,0.225,0.004
16/05/2023,06:59:49,0.276,1.0,0.23,0.005
16/05/2023,07:00:50,0.283,1.0,0.234,0.004
16/05/2023,07:01:50,0.289,1.0,0.239,0.005
16/05/2023,07:02:50,0.295,1.0,0.244,0.005
16/05/2023,07:03:50,0.300,1.0,0.249,0.005
16/05/2023,07:04:49,0.306,1.0,0.254,0.005
16/05/2023,07:05:50,0.310,1.0,0.259,0.005
16/05/2023,07:06:50,0.314,1.0,0.264,0.005
16/05/2023,07:07:49,0.318,1.0,0.27,0.006
16/05/2023,07:08:49,0.323,1.0,0.275,0.005
16/05/2023,07:09:50,0.327,1.0,0.28,0.005
16/05/2023,07:10:50,0.332,1.0,0.286,0.006
16/05/2023,07:11:50,0.336,1.0,0.291,0.005
16/05/2023,07:12:50,0.339,1.0,0.297,0.006
16/05/2023,07:13:50,0.344,1.0,0.303,0.006
16/05/2023,07:14:49,0.350,1.0,0.308,0.005
16/05/2023,07:15:51,0.355,1.0,0.314,0.006
16/05/2023,07:16:49,0.362,1.0,0.32,0.006
16/05/2023,07:17:49,0.365,1.0,0.326,0.006
16/05/2023,07:18:50,0.371,1.0,0.333,0.007
16/05/2023,07:19:50,0.375,1.0,0.339,0.006
16/05/2023,07:20:50,0.382,1.0,0.345,0.006
16/05/2023,07:21:49,0.388,1.0,0.351,0.006
16/05/2023,07:22:50,0.392,1.0,0.358,0.007
16/05/2023,07:23:50,0.397,1.0,0.365,0.007
16/05/2023,07:24:50,0.402,1.0,0.371,0.006
16/05/2023,07:26:19,0.409,1.0,0.381,0.01
16/05/2023,07:27:50,0.419,1.0,0.392,0.011
16/05/2023,07:28:50,0.426,1.0,0.399,0.007
16/05/2023,07:29:50,0.429,1.0,0.406,0.007
16/05/2023,07:30:50,0.435,1.0,0.413,0.007
16/05/2023,07:31:49,0.440,1.0,0.42,0.007
16/05/2023,07:32:50,0.445,1.0,0.428,0.008
16/05/2023,07:33:50,0.450,1.0,0.435,0.007
16/05/2023,07:34:50,0.456,1.0,0.443,0.008
16/05/2023,07:35:50,0.462,1.0,0.45,0.007
16/05/2023,07:36:50,0.468,1.0,0.458,0.008
16/05/2023,07:37:50,0.474,1.0,0.466,0.008
16/05/2023,07:38:50,0.480,1.0,0.474,0.008
16/05/2023,07:39:50,0.488,1.0,0.482,0.008
16/05/2023,07:40:50,0.490,1.0,0.49,0.008
16/05/2023,07:41:50,0.496,1.0,0.498,0.008
16/05/2023,07:42:49,0.499,1.0,0.507,0.009
16/05/2023,07:43:50,0.505,1.0,0.515,0.008
16/05/2023,07:44:50,0.515,1.0,0.523,0.008
16/05/2023,07:45:49,0.519,1.0,0.532,0.009
16/05/2023,07:46:50,0.525,1.0,0.541,0.009
16/05/2023,07:47:50,0.532,1.0,0.55,0.009
16/05/2023,07:48:50,0.539,1.0,0.559,0.009
16/05/2023,07:49:50,0.546,1.0,0.568,0.009
16/05/2023,07:50:50,0.551,1.0,0.577,0.009
16/05/2023,07:51:50,0.556,1.0,0.586,0.009
16/05/2023,07:52:50,0.562,1.0,0.595,0.009
16/05/2023,07:53:50,0.568,1.0,0.605,0.01
16/05/2023,07:54:50,0.576,1.0,0.614,0.009
16/05/2023,07:55:50,0.582,1.0,0.624,0.01
16/05/2023,07:56:50,0.590,1.0,0.634,0.01
16/05/2023,07:57:50,0.597,1.0,0.644,0.01
16/05/2023,07:58:50,0.605,1.0,0.654,0.01
16/05/2023,07:59:50,0.611,1.0,0.664,0.01
16/05/2023,08:00:50,0.618,1.0,0.674,0.01
16/05/2023,08:01:50,0.626,1.0,0.684,0.01
16/05/2023,08:02:50,0.631,1.0,0.695,0.011
16/05/2023,08:03:50,0.636,1.0,0.705,0.01
16/05/2023,08:04:50,0.643,1.0,0.716,0.011
16/05/2023,08:05:50,0.651,1.0,0.727,0.011
16/05/2023,08:06:50,0.655,2.0,0.738,0.011
16/05/2023,08:07:50,0.660,2.0,0.749,0.011
16/05/2023,08:08:50,0.669,2.0,0.76,0.011
16/05/2023,08:09:50,0.678,2.0,0.771,0.011
16/05/2023,08:10:50,0.686,2.0,0.782,0.011
16/05/2023,08:11:50,0.657,2.0,0.794,0.012
16/05/2023,08:12:50,0.697,2.0,0.805,0.011
16/05/2023,08:13:50,0.702,2.0,0.816,0.011
16/05/2023,08:14:50,0.716,2.0,0.827,0.011
16/05/2023,08:15:50,0.723,2.0,0.839,0.012
16/05/2023,08:16:50,0.732,2.0,0.85,0.011
16/05/2023,08:17:50,0.736,2.0,0.862,0.012
16/05/2023,08:18:50,0.744,2.0,0.874,0.012
16/05/2023,08:19:50,0.752,2.0,0.887,0.013
16/05/2023,08:20:50,0.759,2.0,0.899,0.012
16/05/2023,08:21:50,0.767,2.0,0.912,0.013
16/05/2023,08:22:50,0.774,2.0,0.925,0.013
16/05/2023,08:23:50,0.785,2.0,0.938,0.013
16/05/2023,08:24:50,0.788,2.0,0.951,0.013
16/05/2023,08:25:50,0.798,2.0,0.964,0.013
16/05/2023,08:26:50,0.806,2.0,0.978,0.014
16/05/2023,08:27:50,0.815,2.0,0.991,0.013
16/05/2023,08:28:49,0.821,2.0,1.005,0.014
16/05/2023,08:29:50,0.829,2.0,1.018,0.013
16/05/2023,08:30:50,0.836,2.0,1.032,0.014
16/05/2023,08:31:50,0.842,2.0,1.046,0.014
16/05/2023,08:32:50,0.856,2.0,1.06,0.014
16/05/2023,08:33:49,0.866,2.0,1.075,0.015
16/05/2023,08:34:50,0.874,2.0,1.089,0.014
16/05/2023,08:35:50,0.883,2.0,1.104,0.015
16/05/2023,08:36:50,0.892,2.0,1.119,0.015
16/05/2023,08:37:50,0.901,2.0,1.134,0.015
16/05/2023,08:38:50,0.909,2.0,1.149,0.015
16/05/2023,08:39:50,0.915,2.0,1.164,0.015
16/05/2023,08:40:50,0.918,2.0,1.179,0.015
16/05/2023,08:41:50,0.924,2.0,1.195,0.016
16/05/2023,08:42:50,0.934,2.0,1.21,0.015
16/05/2023,08:43:50,0.941,2.0,1.226,0.016
16/05/2023,08:44:50,0.943,2.0,1.241,0.015
16/05/2023,08:45:50,0.954,2.0,1.257,0.016
16/05/2023,08:46:50,0.961,2.0,1.273,0.016
16/05/2023,08:47:50,0.972,2.0,1.289,0.016
16/05/2023,08:48:50,0.981,2.0,1.306,0.017
16/05/2023,08:49:50,0.991,2.0,1.322,0.016
16/05/2023,08:50:50,1.005,2.0,1.339,0.017
16/05/2023,08:51:50,1.016,2.0,1.356,0.017
16/05/2023,08:52:50,1.023,2.0,1.373,0.017
16/05/2023,08:53:50,1.030,2.0,1.39,0.017
16/05/2023,08:54:50,1.038,2.0,1.407,0.017
16/05/2023,08:55:50,1.043,2.0,1.424,0.017
16/05/2023,08:56:50,1.049,2.0,1.442,0.018
16/05/2023,08:57:50,1.063,2.0,1.459,0.017
16/05/2023,08:58:50,1.071,2.0,1.477,0.018
16/05/2023,08:59:50,1.081,2.0,1.495,0.018
16/05/2023,09:00:50,1.092,3.0,1.513,0.018
16/05/2023,09:01:50,1.093,3.0,1.531,0.018
16/05/2023,09:02:50,1.098,3.0,1.55,0.019
16/05/2023,09:03:50,1.102,3.0,1.568,0.018
16/05/2023,09:04:50,1.114,3.0,1.586,0.018
16/05/2023,09:05:50,1.129,3.0,1.605,0.019
16/05/2023,09:06:51,1.118,3.0,1.624,0.019
16/05/2023,09:07:49,0.938,2.0,1.642,0.018
16/05/2023,09:08:51,0.927,2.0,1.66,0.018
16/05/2023,09:09:50,0.834,2.0,1.677,0.017
16/05/2023,09:10:50,1.130,3.0,1.693,0.016
16/05/2023,09:11:50,0.829,2.0,1.71,0.017
16/05/2023,09:12:51,0.800,2.0,1.725,0.015
16/05/2023,09:13:50,1.047,2.0,1.738,0.013
16/05/2023,09:14:50,1.172,3.0,1.758,0.02
16/05/2023,09:15:50,1.183,3.0,1.777,0.019
16/05/2023,09:16:50,1.191,3.0,1.797,0.02
16/05/2023,09:17:50,1.198,3.0,1.817,0.02
16/05/2023,09:18:50,1.204,3.0,1.837,0.02
16/05/2023,09:19:50,1.209,3.0,1.857,0.02
16/05/2023,09:20:50,1.218,3.0,1.878,0.021
16/05/2023,09:21:50,1.223,3.0,1.898,0.02
16/05/2023,09:22:50,1.236,3.0,1.918,0.02
16/05/2023,09:23:50,1.258,3.0,1.939,0.021
16/05/2023,09:24:50,1.267,3.0,1.958,0.019
16/05/2023,09:25:50,1.268,3.0,1.979,0.021
16/05/2023,09:26:50,1.276,3.0,2.0,0.021
16/05/2023,09:27:50,1.296,3.0,2.022,0.022
16/05/2023,09:28:50,1.244,3.0,2.043,0.021
16/05/2023,09:29:50,1.320,3.0,2.062,0.019
16/05/2023,09:30:50,1.180,3.0,2.084,0.022
16/05/2023,09:31:50,1.074,2.0,2.1,0.016
16/05/2023,09:32:50,0.949,2.0,2.118,0.018
16/05/2023,09:33:50,0.860,2.0,2.134,0.016
16/05/2023,09:34:50,0.846,2.0,2.148,0.014
16/05/2023,09:35:50,0.865,2.0,2.162,0.014
16/05/2023,09:36:50,0.880,2.0,2.177,0.015
16/05/2023,09:37:50,1.308,3.0,2.197,0.02
16/05/2023,09:38:50,1.337,3.0,2.219,0.022
16/05/2023,09:39:50,1.359,3.0,2.241,0.022
16/05/2023,09:40:50,1.379,3.0,2.264,0.023
16/05/2023,09:41:50,1.392,3.0,2.287,0.023
16/05/2023,09:42:50,1.405,3.0,2.31,0.023
16/05/2023,09:43:51,1.416,3.0,2.334,0.024
16/05/2023,09:44:50,1.425,3.0,2.357,0.023
16/05/2023,09:45:50,1.444,3.0,2.381,0.024
16/05/2023,09:46:50,1.469,3.0,2.405,0.024
16/05/2023,09:47:50,1.472,3.0,2.43,0.025
16/05/2023,09:48:51,1.463,3.0,2.454,0.024
16/05/2023,09:49:52,1.462,3.0,2.48,0.026
16/05/2023,09:50:50,1.490,3.0,2.502,0.022
16/05/2023,09:51:50,1.497,3.0,2.527,0.025
16/05/2023,09:52:50,1.513,3.0,2.552,0.025
16/05/2023,09:53:50,1.526,4.0,2.577,0.025
16/05/2023,09:54:50,1.527,4.0,2.603,0.026
16/05/2023,09:55:50,1.517,3.0,2.628,0.025
16/05/2023,09:56:50,1.479,3.0,2.653,0.025
16/05/2023,09:57:50,0.941,2.0,2.674,0.021
16/05/2023,09:58:50,0.951,2.0,2.69,0.016
16/05/2023,09:59:51,1.531,4.0,2.71,0.02
16/05/2023,10:00:51,1.555,4.0,2.736,0.026